Home > Weather > Durrës > Past weeks

Flag for Albania Weather for the Past 2 Weeks in Durrës, Albania

Now
54 °F

Passing clouds.


Feels Like: 51 °F
Forecast: 56 / 63 °F
Wind: 8 mph from South

Location: Tirana Airport

Current Time: Feb 13, 2016 at 6:31:59 AM

Latest Report: Feb 13, 2016 at 5:50 AM


Visibility: N/A

Pressure: 29.62 "Hg

Humidity: 82%

Dew point: 48 °F

Location of DurrësLocation

Historic Weather in Durrës — Graph

°F

Durrës Temperature Yesterday

Maximum temperature yesterday: 54 °F (at 11:50 PM)
Minimum temperature yesterday: 37 °F (at 3:50 AM)
Average temperature yesterday: 46 °F

High & Low Weather Summary for the Past Weeks

 TemperatureHumidityPressure
High68 °F (Feb 2, 1:20 PM)100% (Jan 29, 9:20 AM)30.48 "Hg (Jan 29, 9:20 AM)
Low30 °F (Feb 6, 6:20 AM)22% (Feb 6, 11:50 AM)29.56 "Hg (Feb 10, 2:50 PM)
Average50 °F70%30.14 "Hg
* Reported Jan 29 5:20 AM — Feb 13 5:20 AM, Durrës, Weather by CustomWeather, © 2016

Note: Actual official high and low records may vary slightly from our data, if they occured in-between our weather recording intervals... More about our weather records

Advertising

Durrës Weather History for the Previous 24 Hours

 ConditionsComfort  
Time TempWeatherWind HumidityBarometerVisibility
5:20 AM
Sat, Feb 13
54 °FPassing clouds.6 mph82%29.62 "HgN/A
4:20 AM55 °FLight rain. Mostly cloudy.10 mph82%29.65 "HgN/A
3:20 AM55 °FLight rain. Mostly cloudy.9 mph82%29.65 "HgN/A
2:20 AM55 °FLight rain. Partly cloudy.8 mph82%29.68 "HgN/A
1:50 AM54 °FPartly cloudy.8 mph88%29.68 "HgN/A
1:20 AM52 °FPassing clouds.6 mph94%29.68 "Hg4 mi
12:50 AM52 °FMostly cloudy.6 mph94%29.68 "Hg5 mi
12:20 AM54 °FMostly cloudy.5 mph88%29.71 "Hg5 mi
11:50 PM
Fri, Feb 12
54 °FLight rain. Passing clouds.9 mph88%29.71 "HgN/A
11:20 PM52 °FPartly cloudy.7 mph88%29.71 "HgN/A
10:20 PM50 °FPartly cloudy.5 mph94%29.71 "HgN/A
9:50 PM50 °FMostly cloudy.3 mph94%29.74 "Hg5 mi
9:20 PM50 °FMostly cloudy.6 mph88%29.74 "Hg5 mi
8:50 PM48 °FMostly cloudy.3 mph94%29.74 "Hg4 mi
8:20 PM48 °FFog.5 mph94%29.74 "Hg3 mi
7:50 PM48 °FMostly cloudy.3 mph94%29.74 "Hg4 mi
7:20 PM48 °FMostly cloudy.3 mph94%29.74 "Hg4 mi
6:50 PM48 °FMostly cloudy.3 mph94%29.77 "Hg4 mi
6:20 PM48 °FLight rain. Overcast.No wind94%29.77 "Hg5 mi
5:50 PM48 °FLight rain. Overcast.6 mph94%29.74 "HgN/A
5:20 PM48 °FThunderstorms. Overcast.6 mph94%29.74 "Hg5 mi
4:50 PM48 °FLight rain. More clouds than sun.6 mph94%29.77 "Hg3 mi
4:20 PM46 °FLight rain. Overcast.7 mph93%29.77 "Hg4 mi
3:50 PM48 °FRain. Overcast.No wind87%29.77 "Hg5 mi
3:20 PM48 °FRain. Mostly cloudy.2 mph87%29.80 "Hg5 mi
2:50 PM48 °FLight rain. Mostly cloudy.7 mph87%29.80 "HgN/A
2:20 PM50 °FLight rain. Mostly cloudy.7 mph82%29.80 "HgN/A
1:50 PM50 °FLight rain. Mostly cloudy.8 mph76%29.80 "HgN/A
1:20 PM50 °FDrizzle. More clouds than sun.7 mph76%29.83 "HgN/A
12:50 PM52 °FMore clouds than sun.8 mph77%29.83 "HgN/A
12:20 PM52 °FMore clouds than sun.9 mph77%29.83 "HgN/A
11:50 AM52 °FOvercast.7 mph72%29.86 "HgN/A
11:20 AM52 °FPartly sunny.5 mph67%29.86 "HgN/A
10:50 AM52 °FPartly sunny.2 mph67%29.86 "HgN/A
10:20 AM50 °FBroken clouds.2 mph71%29.86 "HgN/A
9:50 AM48 °FBroken clouds.2 mph82%29.89 "HgN/A
9:20 AM46 °FBroken clouds.2 mph87%29.89 "HgN/A
8:50 AM46 °FPartly sunny.2 mph93%29.89 "HgN/A
8:20 AM43 °FPartly sunny.2 mph100%29.89 "HgN/A
7:50 AM43 °FPartly sunny.3 mph93%29.92 "HgN/A
7:20 AM41 °FPartly sunny.5 mph93%29.89 "HgN/A
6:20 AM39 °FPassing clouds.2 mph100%29.89 "HgN/A
Weather by CustomWeather, © 2016

See weather overviewHow to use our weather pages